teraz jesteś w wynikionline.pl       przejdź do: chronosports.plbiurozawodow.pl            polskienglish

wyniki online i klasyfikacje zawodów sportowych

Wyniki oficjalne zawodów wróć

Wyniki oficjalne III Bieg Jurajskich Ścieżek w Żarkach w dniu 24.04.2016

Tabela wyników: 15KM - M40

15KM - OPEN - 
15KM - K OPEN - 15KM - M OPEN - 15KM - K20 - 15KM - M20 - 15KM - K30 - 15KM - M30 - 15KM - K40 - 15KM - M40 - 15KM - K50 - 15KM - M50 - 15KM - K60 - 15KM - M60 - 
10KM - OPEN - 
10KM - K20 - 10KM - M20 - 10KM - K40 - 10KM - M40 - 10KM - K60 - 10KM - M60 - 
10KM NW - OPEN - 
10KM NW - K20 - 10KM NW - M20 - 10KM NW - K40 - 10KM NW - M40 - 10KM NW - K60 - 10KM NW - M60

Tabela wyników: 15KM - M40

miejsce numer zawodnik rocznik miejscowość klub wynik strata
1 46 ZBIGNIEW SZECÓWKA 1974 PORAJ AMBITNI AMATORZY 01:04:17
2 174 ROBERT KAWELCZYK 1967 CZĘSTOCHOWA 01:05:52 00:01:35
3 296 TOMASZ JAMSKI 1969 CZĘSTOCHOWA 01:07:21 00:03:04
4 41 GRZEGORZ PATSCHEK 1974 BYTOM 01:07:27 00:03:10
5 270 DARIUSZ GRZYB 1970 KLEPACZKA 01:07:31 00:03:14
6 39 SŁAWOMIR NOCOŃ 1969 REDZINY 01:08:00 00:03:43
7 218 ALFRED SZECÓWKA 1968 MYSZKÓW 01:08:57 00:04:40
8 245 TOMASZ MAROŃ 1974 PORAJ 01:09:21 00:05:04
9 102 ADAM RYBAK 1971 ZAWIERCIE WKU W BĘDZINIE 01:10:26 00:06:09
10 64 ANDRZEJ RUBIN 1975 JAWORZNO KB MCKIS JAWORZNO 01:10:28 00:06:11
11 65 JERZY KAPRAL 1969 APOLONKA SPPP CZĘSTOCHOWA 01:10:49 00:06:32
12 175 PIOTR BERNACKI 1969 MYSZKÓW 01:11:22 00:07:05
13 324 ZBIGNIEW HASIK 1969 SOSNOWIEC 01:12:02 00:07:45
14 158 JACEK OKULARCZYK 1974 KROCZYCE 01:12:13 00:07:56
15 298 ROMAN KOSELSKI 1976 LUBLINIEC 01:14:03 00:09:46
16 219 GRZEGORZ MALICKI 1970 NOWY KAZANÓW 01:14:37 00:10:20
17 52 JACEK MICELSKI 1968 MIKOŁÓW 01:15:52 00:11:35
18 178 IREK GAJEWSKI 1973 SOSNOWIEC HARPAGAN SOSNOWIEC 01:15:54 00:11:37
19 76 RYSZARD AUGUST 1967 CZELADŹ 01:17:34 00:13:17
20 129 GRZEGORZ KRUK 1969 CZESTOCHOWA PRESS GLASS BIEGAMY I WSPIERAMY 01:18:23 00:14:06
21 106 SŁAWOMIR LITWIN 1976 SOSNOWIEC GONIE PSONIE 01:19:09 00:14:52
22 187 JAROSŁAW KUCZBORSKI 1974 SOSNOWIEC HARPAGAN SOSNOWIEC 01:20:23 00:16:06
23 61 MAREK FERDYNAND 1968 MYSZKÓW 01:20:59 00:16:42
24 146 RAFAŁ WILK 1976 CZELADZ SEKCJA PIASKI 01:21:52 00:17:35
25 3 DARIUSZ SŁAWCZYK 1976 ZAWIERCIE 01:22:09 00:17:52
26 236 RAFAŁ KACZOR 1973 SOSNOWIEC PKO SILESIA RUNNING TEAM 01:22:59 00:18:42
27 217 BOGUSŁAW SZATON 1969 CZELADŹ MOSIR TKKF SATURN CZELADŹ 01:23:12 00:18:55
28 249 RAFAŁ CIMAŁA 1976 TARNOWSKIE GÓRY 01:23:54 00:19:37
29 265 MIROSŁAW KLABIS 1975 OPOLE 91 BLOG 01:24:33 00:20:16
30 200 GRZEGORZ BEZA 1969 RADOMSKO 01:25:29 00:21:12
31 24 KRZYSZTOF ŚWIERCZEWSKI 1976 SOSNOWIEC W POGONI ZA DUCHEM 01:28:25 00:24:08
32 183 RADOSŁAW LORA 1971 RADOMSKO 01:30:11 00:25:54
33 68 GRZEGORZ SZCZERBA 1973 PORĘBA 01:31:19 00:27:02
34 33 TOMASZ MALUS 1974 DĄBROWA GÓRNICZA 01:35:22 00:31:05

Statystyka wyników w 15KM - M40

najlepszy wynik 01:04:17
najgorszy wynik 01:35:22

Statystyka prędkości w 15KM - M40

najwyższa śr. prędkość 14.00 km/h
najniższa śr. prędkość 9.44 km/h

Statystyka tempa w 15KM - M40

najlepsze śr. tempo 00:04:18 min/km
najgorsze śr. tempo 00:06:22 min/km